SP5XSL-4 Weather Reports


time (UTC)temp
C
wind
direction
speed
KPH
gust
KPH
rain 1hr
cm
rain 24hr
cm
rain mn
cm
humidity
%
barometer
mb
20260507021620 11 160 0.0 0.0 0.00 0.00 0.00 1013.3
20260507020728 11 131 0.0 0.0 0.00 0.00 0.00 1013.2
20260507015720 11 163 0.0 0.0 0.00 0.00 0.00 1013.3
20260507014818 11 144 0.0 0.0 0.00 0.00 0.00 1013.3
20260507013847 11 134 0.0 0.0 0.00 0.00 0.00 1013.3
20260507013006 11 129 0.0 0.0 0.00 0.00 0.00 1013.0
20260507011930 11 129 0.0 0.0 0.00 0.00 0.00 1013.6
20260507010940 11 142 0.0 6.4 0.00 0.00 0.00 1013.5
20260507010057 11 123 0.0 0.0 0.00 0.00 0.00 1013.5
20260507005230 11 218 14.5 17.7 0.00 0.00 0.00 1013.4
20260507004346 11 136 0.0 0.0 0.00 0.00 0.00 1013.5
20260507003326 11 137 0.0 0.0 0.00 0.00 0.00 1013.5
20260507002357 11 133 0.0 0.0 0.00 0.00 0.00 1013.3
20260507001404 11 201 6.4 14.5 0.00 0.00 0.00 1013.3
20260507000547 11 176 3.2 14.5 0.00 0.00 0.00 1013.1
20260506235637 11 152 0.0 6.4 0.00 0.00 0.00 1013.0
20260506234700 11 139 0.0 0.0 0.00 0.00 0.00 1013.0
20260506233805 11 143 3.2 6.4 0.00 0.00 0.00 1012.9
20260506232927 12 147 11.3 14.5 0.00 0.00 0.00 1013.2
20260506231930 12 167 6.4 14.5 0.00 0.00 0.00 1013.2
20260506231001 12 134 0.0 0.0 0.00 0.00 0.00 1013.1
20260506230036 12 133 3.2 14.5 0.00 0.00 0.00 1013.0
20260506225217 11 136 0.0 6.4 0.00 0.00 0.00 1012.9
20260506224340 11 129 0.0 0.0 0.00 0.00 0.00 1012.5
20260506223426 10 131 0.0 0.0 0.00 0.00 0.00 1012.2
20260506222530 10 130 0.0 0.0 0.00 0.00 0.00 1012.4
20260506221630 10 136 0.0 0.0 0.00 0.00 0.00 1012.5
20260506220637 11 136 0.0 0.0 0.00 0.00 0.00 1012.4
20260506215840 11 148 0.0 0.0 0.00 0.00 0.00 1012.4
20260506214937 11 134 0.0 0.0 0.00 0.00 0.00 1012.3
20260506214030 12 138 0.0 0.0 0.00 0.00 0.00 1012.1
20260506213142 12 137 0.0 0.0 0.00 0.00 0.00 1012.3
20260506212310 11 137 0.0 0.0 0.00 0.00 0.00 1012.5
20260506211408 11 137 0.0 0.0 0.00 0.00 0.00 1012.3
20260506210430 11 136 0.0 0.0 0.00 0.00 0.00 1012.2
20260506205510 11 136 0.0 0.0 0.00 0.00 0.00 1012.3
20260506204647 12 136 0.0 0.0 0.00 0.00 0.00 1012.3
20260506203820 12 137 0.0 0.0 0.00 0.00 0.00 1012.2
20260506202847 12 136 0.0 0.0 0.00 0.00 0.00 1012.3
20260506202030 12 136 0.0 0.0 0.00 0.00 0.00 1012.3
20260506201127 12 136 0.0 0.0 0.00 0.00 0.00 1012.4
20260506200105 11 132 0.0 0.0 0.00 0.00 0.00 1012.2
20260506195226 11 132 0.0 0.0 0.00 0.00 0.00 1012.2
20260506194240 11 132 0.0 0.0 0.00 0.00 0.00 1012.3
20260506193440 12 132 0.0 0.0 0.00 0.00 0.00 1012.2
20260506192540 12 132 0.0 0.0 0.00 0.00 0.00 1012.1
20260506191610 12 132 0.0 0.0 0.00 0.00 0.00 1012.1
20260506190750 12 132 0.0 0.0 0.00 0.00 0.00 1012.2
20260506185828 12 132 0.0 0.0 0.00 0.00 0.00 1012.1
20260506184946 13 132 0.0 0.0 0.00 0.00 0.00 1012.2
20260506184001 13 132 0.0 0.0 0.00 0.00 0.00 1012.2
20260506183107 13 132 0.0 0.0 0.00 0.00 0.00 1011.9
20260506182110 15 132 0.0 0.0 0.00 0.00 0.00 1011.8
20260506181309 15 132 0.0 0.0 0.00 0.00 0.00 1011.7
20260506180320 15 132 0.0 0.0 0.00 0.00 0.00 1011.8
20260506175326 16 132 0.0 0.0 0.00 0.00 0.00 1011.7
20260506174417 17 131 0.0 0.0 0.00 0.00 0.00 1011.7
20260506173406 17 132 0.0 0.0 0.00 0.00 0.00 1011.9
20260506172450 18 138 0.0 0.0 0.00 0.00 0.00 1011.6
20260506171437 18 138 0.0 0.0 0.00 0.00 0.00 1011.6
20260506170458 18 138 0.0 0.0 0.00 0.00 0.00 1011.6
20260506165543 18 144 3.2 6.4 0.00 0.00 0.00 1011.6
20260506164630 19 140 0.0 0.0 0.00 0.00 0.00 1011.7
20260506163708 19 164 14.5 25.7 0.00 0.00 0.00 1011.7
20260506162716 20 141 3.2 6.4 0.00 0.00 0.00 1011.8
20260506161912 20 147 0.0 6.4 0.00 0.00 0.00 1011.8
20260506160947 20 166 3.2 6.4 0.00 0.00 0.00 1011.8
20260506160105 20 153 6.4 14.5 0.00 0.00 0.00 1011.7
20260506155106 21 187 35.4 46.7 0.00 0.00 0.00 1011.8
20260506154026 21 139 6.4 14.5 0.00 0.00 0.00 1011.9
20260506153106 21 189 43.5 61.2 0.00 0.00 0.00 1011.8
20260506152120 20 149 6.4 14.5 0.00 0.00 0.00 1012.0
20260506151130 20 142 20.9 25.7 0.00 0.00 0.00 1011.9
20260506150206 20 122 17.7 25.7 0.00 0.00 0.00 1011.9
20260506145237 20 173 32.2 40.2 0.00 0.00 0.00 1011.7
20260506144226 21 164 32.2 40.2 0.00 0.00 0.00 1011.7
20260506143307 21 164 20.9 46.7 0.00 0.00 0.00 1012.0
20260506142340 21 187 32.2 54.7 0.00 0.00 0.00 1011.8
20260506141500 21 172 35.4 46.7 0.00 0.00 0.00 1011.8
20260506140635 21 160 35.4 46.7 0.00 0.00 0.00 1011.7
20260506135805 21 143 32.2 32.2 0.00 0.00 0.00 1011.6
20260506134927 21 170 20.9 25.7 0.00 0.00 0.00 1011.5
20260506133951 21 187 35.4 54.7 0.00 0.00 0.00 1011.6
20260506132947 21 193 20.9 25.7 0.00 0.00 0.00 1011.2
20260506132105 21 174 35.4 72.4 0.00 0.00 0.00 1011.3
20260506131127 21 155 17.7 17.7 0.00 0.00 0.00 1011.1
20260506130247 21 169 11.3 14.5 0.00 0.00 0.00 1011.3
20260506125440 21 161 29.0 40.2 0.00 0.00 0.00 1011.3
20260506124615 21 148 14.5 17.7 0.00 0.00 0.00 1011.4
20260506123630 21 176 43.5 54.7 0.00 0.00 0.00 1011.2
20260506122646 21 196 35.4 54.7 0.00 0.00 0.00 1011.2
20260506121840 21 184 35.4 46.7 0.00 0.00 0.00 1011.2
20260506120857 21 117 20.9 25.7 0.00 0.00 0.00 1011.1
20260506115857 21 178 32.2 46.7 0.00 0.00 0.00 1010.9
20260506114916 21 166 40.2 61.2 0.00 0.00 0.00 1011.0
20260506114048 21 167 43.5 54.7 0.00 0.00 0.00 1010.9
20260506113027 22 143 25.7 32.2 0.00 0.00 0.00 1010.9
20260506112017 21 135 20.9 32.2 0.00 0.00 0.00 1011.0
20260506105645 21 193 35.4 46.7 0.00 0.00 0.00 1010.9
20260506104730 20 145 17.7 17.7 0.00 0.00 0.00 1010.9
20260506103835 20 98 17.7 25.7 0.00 0.00 0.00 1010.8
20260506103022 20 85 25.7 32.2 0.00 0.00 0.00 1011.4
20260506102120 20 100 20.9 32.2 0.00 0.00 0.00 1011.3
20260506101315 20 133 11.3 14.5 0.00 0.00 0.00 1011.4
20260506100242 20 79 14.5 17.7 0.00 0.00 0.00 1011.6
20260506095310 19 89 14.5 14.5 0.00 0.00 0.00 1011.4
20260506094312 18 68 11.3 14.5 0.00 0.00 0.00 1011.3
20260506093335 18 171 11.3 17.7 0.00 0.00 0.00 1011.5
20260506092532 18 75 20.9 32.2 0.00 0.00 0.00 1011.7
20260506091545 18 105 0.0 6.4 0.00 0.00 0.00 1011.6
20260506090545 17 69 17.7 32.2 0.00 0.00 0.00 1011.5
20260506085545 17 118 3.2 14.5 0.00 0.00 0.00 1011.7
20260506084712 16 82 14.5 25.7 0.00 0.00 0.00 1011.6
20260506083725 16 86 6.4 14.5 0.00 0.00 0.00 1011.7
20260506082826 17 94 32.2 46.7 0.00 0.00 0.00 1011.9
20260506082021 16 42 17.7 17.7 0.00 0.00 0.00 1011.7
20260506081205 16 69 17.7 25.7 0.00 0.00 0.00 1011.5
20260506080217 15 52 20.9 32.2 0.00 0.00 0.00 1011.8
20260506073519 15 68 17.7 17.7 0.00 0.00 0.00 1012.1
20260506072610 14 77 14.5 17.7 0.00 0.00 0.00 1012.2
20260506071639 14 98 29.0 32.2 0.00 0.00 0.00 1012.2
20260506070659 14 35 20.9 25.7 0.00 0.00 0.00 1012.3
20260506061827 12 35 11.3 14.5 0.00 0.00 0.00 1012.2
20260506061005 11 65 3.2 14.5 0.00 0.00 0.00 1012.4
20260506051210 10 269 25.7 32.2 0.00 0.00 0.00 1013.0
20260506050350 10 22 32.2 40.2 0.00 0.00 0.00 1013.0
20260506044637 10 334 43.5 54.7 0.00 0.00 0.00 1013.2
20260506043808 10 65 14.5 17.7 0.00 0.00 0.00 1012.9
20260506042859 9 44 20.9 25.7 0.00 0.00 0.00 1013.1
20260506042010 9 83 17.7 25.7 0.00 0.00 0.00 1013.0
20260506041027 8 30 25.7 32.2 0.00 0.00 0.00 1013.3
20260506040139 8 83 11.3 14.5 0.00 0.00 0.00 1013.5
20260506035252 8 135 6.4 6.4 0.00 0.00 0.00 1013.6
20260506034419 8 81 14.5 17.7 0.00 0.00 0.00 1013.5
20260506033600 8 85 3.2 6.4 0.00 0.00 0.00 1013.4
20260506032757 8 121 3.2 6.4 0.00 0.00 0.00 1013.5
20260506031835 8 131 6.4 6.4 0.00 0.00 0.00 1013.4
20260506031017 8 40 11.3 14.5 0.00 0.00 0.00 1013.6
20260506030047 8 276 14.5 17.7 0.00 0.00 0.00 1013.5
20260506025110 8 131 6.4 14.5 0.00 0.00 0.00 1013.5
20260506024139 8 100 6.4 6.4 0.00 0.00 0.00 1013.8
20260506023247 8 117 3.2 6.4 0.00 0.00 0.00 1013.7
20260506022246 8 38 6.4 14.5 0.00 0.00 0.00 1013.6